Location: Spring Creek
(38.2870°N, 100.2160°W)
Time: 02:02:26
(UTC+00:00)

Cosmos 1300 - Pass Details

Date: 08 May 2021
Orbit: 510 x 513 km, 82.5° (Epoch: 22 June)

Event Time Altitude Azimuth Distance (km) Brightness Sun altitude
Rises 10:30:12 0° 347° (NNW) 2,634 6.6 -12.2°
Reaches altitude 10° 10:32:23 10° 342° (NNW) 1,743 5.6 -11.9°
Maximum altitude 10:36:05 50° 266° (W) 657 2.9 -11.3°
Drops below altitude 10° 10:39:46 10° 191° (S) 1,728 5.0 -10.6°
Enters shadow 10:41:15 - 187° (S) 2,337 5.7 -10.4°
